,�O�C���x[��],����1,�O�C���x[��],����2,���ԉ��x[��],����3,���Ԏ��x[��],����4,�m��2(��󒲎�)���x[��],����5,����[��],����6
2004/9/1 0:00,23.5,0,70,0 ,26.6,0 ,64,0 ,26.5,0 ,24.8,0 
2004/9/1 0:15,22.4,0,75,0 ,26.6,0 ,64,0 ,26.5,0 ,24.9,0 
2004/9/1 0:30,22.7,0,74,0 ,26.6,0 ,65,0 ,26.4,0 ,24.9,0 
2004/9/1 0:45,22.9,0,75,0 ,26.5,0 ,65,0 ,26.4,0 ,24.9,0 
2004/9/1 1:00,22.5,0,74,0 ,26.4,0 ,63,0 ,26.3,0 ,25,0 
2004/9/1 1:15,22.1,0,78,0 ,26.4,0 ,65,0 ,26.3,0 ,25,0 
2004/9/1 1:30,22.3,0,77,0 ,26.4,0 ,64,0 ,26.3,0 ,25,0 
2004/9/1 1:45,22.3,0,75,0 ,26.3,0 ,63,0 ,26.2,0 ,25.1,0 
2004/9/1 2:00,22,0,78,0 ,26.3,0 ,63,0 ,26.2,0 ,25.1,0 
2004/9/1 2:15,22.2,0,75,0 ,26.2,0 ,64,0 ,26.1,0 ,25.1,0 
2004/9/1 2:30,22.1,0,76,0 ,26.2,0 ,63,0 ,26.1,0 ,25.2,0 
2004/9/1 2:45,22.2,0,76,0 ,26.2,0 ,64,0 ,26.1,0 ,25.2,0 
2004/9/1 3:00,22.2,0,76,0 ,26.2,0 ,65,0 ,26.1,0 ,25.2,0 
2004/9/1 3:15,22,0,77,0 ,26.2,0 ,64,0 ,26.1,0 ,25.2,0 
2004/9/1 3:30,21.7,0,78,0 ,26.2,0 ,66,0 ,26.1,0 ,25.3,0 
2004/9/1 3:45,21.8,0,78,0 ,26.2,0 ,65,0 ,26,0 ,25.3,0 
2004/9/1 4:00,21.7,0,79,0 ,26.2,0 ,66,0 ,26,0 ,25.3,0 
2004/9/1 4:15,21.5,0,79,0 ,26.2,0 ,66,0 ,26,0 ,25.3,0 
2004/9/1 4:30,21.5,0,80,0 ,26.1,0 ,65,0 ,26,0 ,25.4,0 
2004/9/1 4:45,21.2,0,80,0 ,26.1,0 ,65,0 ,26,0 ,25.4,0 
2004/9/1 5:00,21.3,0,81,0 ,26.2,0 ,64,0 ,26,0 ,25.4,0 
2004/9/1 5:15,21.3,0,80,0 ,26.1,0 ,65,0 ,26,0 ,25.4,0 
2004/9/1 5:30,21.2,0,84,0 ,26.1,0 ,64,0 ,25.9,0 ,25.4,0 
2004/9/1 5:45,21.8,0,80,0 ,26.1,0 ,65,0 ,25.9,0 ,25.4,0 
2004/9/1 6:00,21.9,0,78,0 ,26.2,0 ,64,0 ,25.9,0 ,25.1,0 
2004/9/1 6:15,23.3,0,74,0 ,26.2,0 ,63,0 ,26,0 ,24.5,0 
2004/9/1 6:30,24.1,0,68,0 ,26.3,0 ,64,0 ,26,0 ,24.6,0 
2004/9/1 6:45,23.7,0,69,0 ,26.3,0 ,62,0 ,26,0 ,24.4,0 
2004/9/1 7:00,24.3,0,68,0 ,26.4,0 ,63,0 ,26,0 ,24.5,0 
2004/9/1 7:15,24.1,0,66,0 ,26.5,0 ,63,0 ,26.1,0 ,24.5,0 
2004/9/1 7:30,25.6,0,63,0 ,26.6,0 ,62,0 ,26.2,0 ,24.6,0 
2004/9/1 7:45,26.4,0,59,0 ,26.8,0 ,63,0 ,26.3,0 ,24.7,0 
2004/9/1 8:00,27.3,0,56,0 ,27,0 ,63,0 ,26.3,0 ,24.7,0 
2004/9/1 8:15,27.6,0,56,0 ,27.1,0 ,63,0 ,26.4,0 ,24.8,0 
2004/9/1 8:30,29.2,0,52,0 ,27.2,0 ,63,0 ,26.5,0 ,24.8,0 
2004/9/1 8:45,29.9,0,50,0 ,27.3,0 ,63,0 ,26.6,0 ,24.9,0 
2004/9/1 9:00,30.4,0,49,0 ,27.3,0 ,63,0 ,26.6,0 ,24.9,0 
2004/9/1 9:15,31.5,0,47,0 ,27.4,0 ,63,0 ,26.7,0 ,25,0 
2004/9/1 9:30,32.2,0,44,0 ,27.5,0 ,63,0 ,26.7,0 ,25,0 
2004/9/1 9:45,32.1,0,43,0 ,27.5,0 ,63,0 ,26.7,0 ,25.1,0 
2004/9/1 10:00,32.1,0,43,0 ,27.6,0 ,62,0 ,26.7,0 ,25.2,0 
2004/9/1 10:15,31.8,0,44,0 ,27.6,0 ,62,0 ,26.8,0 ,25.2,0 
2004/9/1 10:30,32.1,0,43,0 ,27.6,0 ,61,0 ,26.8,0 ,25.3,0 
2004/9/1 10:45,31.3,0,43,0 ,27.6,0 ,60,0 ,26.8,0 ,25.3,0 
2004/9/1 11:00,33.9,0,38,0 ,27.6,0 ,59,0 ,26.8,0 ,25.4,0 
2004/9/1 11:15,33.4,0,39,0 ,27.7,0 ,59,0 ,26.8,0 ,25.5,0 
2004/9/1 11:30,31.9,0,41,0 ,27.7,0 ,59,0 ,26.8,0 ,25.5,0 
2004/9/1 11:45,32.1,0,40,0 ,27.7,0 ,58,0 ,26.9,0 ,25.5,0 
2004/9/1 12:00,32.4,0,39,0 ,27.7,0 ,58,0 ,26.9,0 ,25.6,0 
2004/9/1 12:15,32.5,0,37,0 ,27.7,0 ,57,0 ,26.9,0 ,25.6,0 
2004/9/1 12:30,33.1,0,37,0 ,27.7,0 ,56,0 ,26.9,0 ,25.7,0 
2004/9/1 12:45,33.5,0,35,0 ,27.7,0 ,55,0 ,27,0 ,25.7,0 
2004/9/1 13:00,33.6,0,36,0 ,27.8,0 ,55,0 ,27,0 ,25.7,0 
2004/9/1 13:15,33.4,0,36,0 ,27.8,0 ,55,0 ,27,0 ,25.8,0 
2004/9/1 13:30,33.4,0,34,0 ,27.8,0 ,54,0 ,27,0 ,25.8,0 
2004/9/1 13:45,33.5,0,35,0 ,27.8,0 ,54,0 ,27.1,0 ,25.9,0 
2004/9/1 14:00,33.1,0,34,0 ,27.9,0 ,54,0 ,27.1,0 ,25.9,0 
2004/9/1 14:15,33.1,0,36,0 ,27.9,0 ,54,0 ,27.1,0 ,25.9,0 
2004/9/1 14:30,32.6,0,37,0 ,27.9,0 ,55,0 ,27.1,0 ,25.9,0 
2004/9/1 14:45,31.8,0,42,0 ,27.9,0 ,57,0 ,27.1,0 ,26,0 
2004/9/1 15:00,32,0,40,0 ,27.8,0 ,57,0 ,27.2,0 ,26,0 
2004/9/1 15:15,31.6,0,42,0 ,27.9,0 ,57,0 ,27.2,0 ,26.1,0 
2004/9/1 15:30,30.9,0,42,0 ,27.8,0 ,57,0 ,27.2,0 ,26.1,0 
2004/9/1 15:45,30.6,0,40,0 ,27.8,0 ,55,0 ,27.2,0 ,26.1,0 
2004/9/1 16:00,30.3,0,40,0 ,27.7,0 ,54,0 ,27.2,0 ,26.2,0 
2004/9/1 16:15,30.2,0,40,0 ,27.7,0 ,53,0 ,27.1,0 ,26.2,0 
2004/9/1 16:30,30.4,0,39,0 ,27.7,0 ,53,0 ,27.1,0 ,26.2,0 
2004/9/1 16:45,30.3,0,39,0 ,27.7,0 ,53,0 ,27,0 ,26.2,0 
2004/9/1 17:00,29.2,0,43,0 ,27.7,0 ,52,0 ,27,0 ,26.3,0 
2004/9/1 17:15,29.7,0,43,0 ,27.6,0 ,53,0 ,27,0 ,26.3,0 
2004/9/1 17:30,29.3,0,44,0 ,27.6,0 ,54,0 ,27,0 ,26.3,0 
2004/9/1 17:45,28.3,0,46,0 ,27.6,0 ,54,0 ,26.9,0 ,26.4,0 
2004/9/1 18:00,28.7,0,44,0 ,27.6,0 ,54,0 ,26.9,0 ,26.4,0 
2004/9/1 18:15,28.7,0,46,0 ,27.5,0 ,54,0 ,26.9,0 ,26.4,0 
2004/9/1 18:30,28.4,0,50,0 ,27.5,0 ,56,0 ,26.9,0 ,26.4,0 
2004/9/1 18:45,28.6,0,49,0 ,27.5,0 ,57,0 ,26.9,0 ,26.4,0 
2004/9/1 19:00,27.8,0,51,0 ,27.5,0 ,57,0 ,26.8,0 ,26.5,0 
2004/9/1 19:15,27.8,0,52,0 ,27.4,0 ,58,0 ,26.8,0 ,26,0 
2004/9/1 19:30,27.8,0,51,0 ,27.5,0 ,62,0 ,27,0 ,26,0 
2004/9/1 19:45,28,0,49,0 ,27.5,0 ,62,0 ,27,0 ,26.1,0 
2004/9/1 20:00,27.7,0,49,0 ,27.6,0 ,63,0 ,27.1,0 ,25.4,0 
2004/9/1 20:15,27.6,0,53,0 ,27.6,0 ,62,0 ,27.1,0 ,25.5,0 
2004/9/1 20:30,27.3,0,55,0 ,27.6,0 ,63,0 ,27.1,0 ,25.6,0 
2004/9/1 20:45,27.2,0,58,0 ,27.7,0 ,64,0 ,27.1,0 ,25.1,0 
2004/9/1 21:00,26.8,0,59,0 ,27.7,0 ,65,0 ,27.2,0 ,24.9,0 
2004/9/1 21:15,26.3,0,62,0 ,27.7,0 ,65,0 ,27.2,0 ,25.1,0 
2004/9/1 21:30,26.3,0,63,0 ,27.7,0 ,65,0 ,27.2,0 ,25.2,0 
2004/9/1 21:45,26.3,0,53,0 ,27.7,0 ,65,0 ,27.2,0 ,25.3,0 
2004/9/1 22:00,25.9,0,57,0 ,27.7,0 ,62,0 ,27.2,0 ,25.4,0 
2004/9/1 22:15,25.6,0,52,0 ,27.7,0 ,62,0 ,27.2,0 ,25.1,0 
2004/9/1 22:30,23.5,0,63,0 ,27.7,0 ,61,0 ,27.2,0 ,25,0 
2004/9/1 22:45,24.7,0,62,0 ,27.7,0 ,63,0 ,27.2,0 ,25.1,0 
2004/9/1 23:00,25,0,60,0 ,27.7,0 ,64,0 ,27.1,0 ,25.2,0 
2004/9/1 23:15,25.1,0,60,0 ,27.6,0 ,65,0 ,27.1,0 ,25.3,0 
2004/9/1 23:30,25,0,60,0 ,27.6,0 ,66,0 ,27.1,0 ,25.4,0 
2004/9/1 23:45,24.6,0,64,0 ,27.6,0 ,66,0 ,27.1,0 ,25.4,0 
2004/9/2 0:00,24.5,0,64,0 ,27.5,0 ,66,0 ,27.1,0 ,25.5,0 
2004/9/2 0:15,23.9,0,69,0 ,27.4,0 ,65,0 ,27.1,0 ,25.5,0 
2004/9/2 0:30,24.1,0,69,0 ,27.4,0 ,65,0 ,27,0 ,25.6,0 
2004/9/2 0:45,22.7,0,77,0 ,27.3,0 ,65,0 ,27,0 ,25.7,0 
2004/9/2 1:00,22.6,0,79,0 ,27.3,0 ,65,0 ,27,0 ,25.7,0 
2004/9/2 1:15,22.6,0,78,0 ,27.3,0 ,65,0 ,27,0 ,25.7,0 
2004/9/2 1:30,22.6,0,83,0 ,27.3,0 ,65,0 ,26.9,0 ,25.8,0 
2004/9/2 1:45,23.2,0,81,0 ,27.3,0 ,65,0 ,26.9,0 ,25.8,0 
2004/9/2 2:00,23.1,0,79,0 ,27.2,0 ,66,0 ,26.9,0 ,25.9,0 
2004/9/2 2:15,22.7,0,78,0 ,27.2,0 ,66,0 ,26.9,0 ,25.9,0 
2004/9/2 2:30,22.5,0,80,0 ,27.2,0 ,65,0 ,26.9,0 ,25.9,0 
2004/9/2 2:45,22,0,78,0 ,27.2,0 ,65,0 ,26.9,0 ,26,0 
2004/9/2 3:00,22.1,0,78,0 ,27.1,0 ,65,0 ,26.8,0 ,26,0 
2004/9/2 3:15,22.3,0,79,0 ,27.1,0 ,65,0 ,26.8,0 ,26,0 
2004/9/2 3:30,22.2,0,75,0 ,27.1,0 ,64,0 ,26.8,0 ,26,0 
2004/9/2 3:45,21.7,0,80,0 ,27,0 ,64,0 ,26.8,0 ,26.1,0 
2004/9/2 4:00,21.8,0,82,0 ,27,0 ,64,0 ,26.8,0 ,26.1,0 
2004/9/2 4:15,22,0,81,0 ,27,0 ,64,0 ,26.8,0 ,26.1,0 
2004/9/2 4:30,22,0,81,0 ,27,0 ,64,0 ,26.7,0 ,26.1,0 
2004/9/2 4:45,21.7,0,81,0 ,27,0 ,64,0 ,26.7,0 ,26.1,0 
2004/9/2 5:00,21.1,0,84,0 ,27,0 ,64,0 ,26.7,0 ,26.1,0 
2004/9/2 5:15,21.6,0,86,0 ,27,0 ,65,0 ,26.7,0 ,26.2,0 
2004/9/2 5:30,21.6,0,82,0 ,27,0 ,65,0 ,26.7,0 ,26.2,0 
2004/9/2 5:45,21.7,0,80,0 ,26.9,0 ,64,0 ,26.7,0 ,26.2,0 
2004/9/2 6:00,21.7,0,81,0 ,26.9,0 ,64,0 ,26.7,0 ,26.2,0 
2004/9/2 6:15,21.9,0,83,0 ,26.9,0 ,63,0 ,26.6,0 ,25.3,0 
2004/9/2 6:30,21.6,0,81,0 ,26.9,0 ,63,0 ,26.6,0 ,25.4,0 
2004/9/2 6:45,21.2,0,84,0 ,26.9,0 ,64,0 ,26.7,0 ,25.5,0 
2004/9/2 7:00,21.4,0,85,0 ,26.9,0 ,63,0 ,26.7,0 ,25.5,0 
2004/9/2 7:15,21.7,0,84,0 ,26.9,0 ,63,0 ,26.7,0 ,25.6,0 
2004/9/2 7:30,21.7,0,83,0 ,26.8,0 ,62,0 ,26.7,0 ,25.4,0 
2004/9/2 7:45,21.5,0,82,0 ,26.9,0 ,61,0 ,26.6,0 ,25.1,0 
2004/9/2 8:00,22,0,82,0 ,26.8,0 ,62,0 ,26.6,0 ,25.2,0 
2004/9/2 8:15,22.1,0,81,0 ,26.8,0 ,62,0 ,26.5,0 ,25.3,0 
2004/9/2 8:30,21.9,0,80,0 ,26.8,0 ,62,0 ,26.5,0 ,25.3,0 
2004/9/2 8:45,22,0,81,0 ,26.8,0 ,61,0 ,26.5,0 ,25.4,0 
2004/9/2 9:00,22.4,0,80,0 ,26.7,0 ,61,0 ,26.5,0 ,25.4,0 
2004/9/2 9:15,22.3,0,78,0 ,26.7,0 ,61,0 ,26.5,0 ,25.5,0 
2004/9/2 9:30,22.2,0,77,0 ,26.7,0 ,61,0 ,26.4,0 ,25.5,0 
2004/9/2 9:45,22.2,0,75,0 ,26.7,0 ,61,0 ,26.4,0 ,25.5,0 
2004/9/2 10:00,22.1,0,77,0 ,26.7,0 ,60,0 ,26.4,0 ,25.5,0 
2004/9/2 10:15,22.1,0,78,0 ,26.7,0 ,60,0 ,26.4,0 ,25.6,0 
2004/9/2 10:30,22.2,0,79,0 ,26.6,0 ,60,0 ,26.3,0 ,25.6,0 
2004/9/2 10:45,22.5,0,79,0 ,26.6,0 ,60,0 ,26.3,0 ,25.6,0 
2004/9/2 11:00,22.2,0,79,0 ,26.7,0 ,61,0 ,26.3,0 ,25.7,0 
2004/9/2 11:15,22.4,0,80,0 ,26.6,0 ,61,0 ,26.3,0 ,25.7,0 
2004/9/2 11:30,22.4,0,79,0 ,26.6,0 ,61,0 ,26.3,0 ,25.7,0 
2004/9/2 11:45,22.4,0,79,0 ,26.6,0 ,61,0 ,26.3,0 ,25.7,0 
2004/9/2 12:00,22.5,0,80,0 ,26.6,0 ,61,0 ,26.3,0 ,25.7,0 
2004/9/2 12:15,22.2,0,80,0 ,26.6,0 ,61,0 ,26.3,0 ,25.7,0 
2004/9/2 12:30,22.3,0,80,0 ,26.6,0 ,61,0 ,26.3,0 ,25.8,0 
2004/9/2 12:45,22.5,0,80,0 ,26.6,0 ,61,0 ,26.3,0 ,25.8,0 
2004/9/2 13:00,22.8,0,79,0 ,26.6,0 ,62,0 ,26.2,0 ,25.8,0 
2004/9/2 13:15,23.1,0,78,0 ,26.6,0 ,62,0 ,26.2,0 ,25.8,0 
2004/9/2 13:30,22.9,0,78,0 ,26.6,0 ,62,0 ,26.2,0 ,25.8,0 
2004/9/2 13:45,22.6,0,79,0 ,26.6,0 ,62,0 ,26.2,0 ,25.8,0 
2004/9/2 14:00,22.8,0,81,0 ,26.6,0 ,62,0 ,26.2,0 ,25.9,0 
2004/9/2 14:15,22.8,0,80,0 ,26.6,0 ,62,0 ,26.2,0 ,25.6,0 
2004/9/2 14:30,22.8,0,80,0 ,26.6,0 ,65,0 ,26.4,0 ,25.7,0 
2004/9/2 14:45,22.8,0,81,0 ,26.6,0 ,67,0 ,26.4,0 ,25.7,0 
2004/9/2 15:00,22.8,0,81,0 ,26.7,0 ,67,0 ,26.4,0 ,25.8,0 
2004/9/2 15:15,22.7,0,80,0 ,26.6,0 ,65,0 ,26.3,0 ,25.8,0 
2004/9/2 15:30,22.6,0,81,0 ,26.6,0 ,64,0 ,26.3,0 ,25.8,0 
2004/9/2 15:45,22.1,0,84,0 ,26.6,0 ,64,0 ,26.3,0 ,25.9,0 
2004/9/2 16:00,22,0,85,0 ,26.6,0 ,63,0 ,26.3,0 ,25.9,0 
2004/9/2 16:15,22,0,86,0 ,26.6,0 ,63,0 ,26.3,0 ,25.9,0 
2004/9/2 16:30,22,0,89,0 ,26.6,0 ,63,0 ,26.3,0 ,25.9,0 
2004/9/2 16:45,22.1,0,89,0 ,26.6,0 ,63,0 ,26.3,0 ,25.7,0 
2004/9/2 17:00,22,0,89,0 ,26.6,0 ,65,0 ,26.2,0 ,25.7,0 
2004/9/2 17:15,22.1,0,89,0 ,26.6,0 ,64,0 ,26.2,0 ,25.8,0 
2004/9/2 17:30,21.8,0,88,0 ,26.5,0 ,64,0 ,26.2,0 ,25.8,0 
2004/9/2 17:45,21.8,0,84,0 ,26.5,0 ,64,0 ,26.2,0 ,25.8,0 
2004/9/2 18:00,21.4,0,85,0 ,26.5,0 ,63,0 ,26.2,0 ,25.8,0 
2004/9/2 18:15,21.2,0,86,0 ,26.5,0 ,63,0 ,26.1,0 ,25.8,0 
2004/9/2 18:30,21,0,86,0 ,26.4,0 ,62,0 ,26.1,0 ,25.9,0 
2004/9/2 18:45,21.2,0,86,0 ,26.4,0 ,62,0 ,26.1,0 ,25.9,0 
2004/9/2 19:00,21.2,0,87,0 ,26.4,0 ,63,0 ,26.2,0 ,25.9,0 
2004/9/2 19:15,21.3,0,86,0 ,26.5,0 ,65,0 ,26.4,0 ,25.9,0 
2004/9/2 19:30,21.3,0,87,0 ,26.5,0 ,65,0 ,26.4,0 ,25.9,0 
2004/9/2 19:45,21.2,0,86,0 ,26.6,0 ,65,0 ,26.4,0 ,25.9,0 
2004/9/2 20:00,21.1,0,85,0 ,26.6,0 ,65,0 ,26.4,0 ,25.9,0 
2004/9/2 20:15,20.8,0,85,0 ,26.7,0 ,65,0 ,26.4,0 ,26,0 
2004/9/2 20:30,20.6,0,85,0 ,26.7,0 ,64,0 ,26.3,0 ,25.4,0 
2004/9/2 20:45,20.9,0,85,0 ,26.7,0 ,64,0 ,26.4,0 ,25.5,0 
2004/9/2 21:00,20.7,0,83,0 ,26.7,0 ,64,0 ,26.4,0 ,25.6,0 
2004/9/2 21:15,20.6,0,84,0 ,26.8,0 ,64,0 ,26.5,0 ,24.8,0 
2004/9/2 21:30,20.7,0,85,0 ,26.8,0 ,64,0 ,26.6,0 ,24.9,0 
2004/9/2 21:45,20.5,0,86,0 ,26.9,0 ,64,0 ,26.7,0 ,25,0 
2004/9/2 22:00,20.6,0,86,0 ,26.9,0 ,66,0 ,26.7,0 ,24.9,0 
2004/9/2 22:15,20.2,0,87,0 ,26.9,0 ,68,0 ,26.8,0 ,25,0 
2004/9/2 22:30,20.2,0,89,0 ,26.9,0 ,67,0 ,26.8,0 ,25.1,0 
2004/9/2 22:45,20.2,0,89,0 ,26.9,0 ,68,0 ,26.8,0 ,25.2,0 
2004/9/2 23:00,20.1,0,89,0 ,26.9,0 ,67,0 ,26.7,0 ,25.3,0 
2004/9/2 23:15,19.9,0,90,0 ,26.9,0 ,67,0 ,26.7,0 ,25.3,0 
2004/9/2 23:30,20,0,90,0 ,26.9,0 ,66,0 ,26.7,0 ,25.4,0 
2004/9/2 23:45,20.2,0,90,0 ,26.8,0 ,66,0 ,26.6,0 ,25.4,0 
2004/9/3 0:00,20.5,0,88,0 ,26.8,0 ,66,0 ,26.6,0 ,25.5,0 
2004/9/3 0:15,20.3,0,88,0 ,26.8,0 ,65,0 ,26.6,0 ,25.5,0 
2004/9/3 0:30,20.2,0,88,0 ,26.7,0 ,65,0 ,26.5,0 ,25.5,0 
2004/9/3 0:45,20.2,0,89,0 ,26.7,0 ,65,0 ,26.5,0 ,25.6,0 
2004/9/3 1:00,20.3,0,88,0 ,26.7,0 ,65,0 ,26.5,0 ,25.6,0 
2004/9/3 1:15,20.3,0,88,0 ,26.7,0 ,65,0 ,26.5,0 ,25.6,0 
2004/9/3 1:30,20.3,0,89,0 ,26.6,0 ,65,0 ,26.4,0 ,25.7,0 
2004/9/3 1:45,20.3,0,89,0 ,26.6,0 ,65,0 ,26.4,0 ,25.6,0 
2004/9/3 2:00,20.2,0,89,0 ,26.6,0 ,65,0 ,26.4,0 ,25.7,0 
2004/9/3 2:15,20.3,0,89,0 ,26.6,0 ,65,0 ,26.4,0 ,25.7,0 
2004/9/3 2:30,20.2,0,89,0 ,26.6,0 ,64,0 ,26.4,0 ,25.7,0 
2004/9/3 2:45,20.2,0,90,0 ,26.6,0 ,64,0 ,26.4,0 ,25.8,0 
2004/9/3 3:00,20.2,0,90,0 ,26.6,0 ,64,0 ,26.3,0 ,25.8,0 
2004/9/3 3:15,20.1,0,90,0 ,26.5,0 ,64,0 ,26.3,0 ,25.8,0 
2004/9/3 3:30,20.1,0,91,0 ,26.5,0 ,64,0 ,26.3,0 ,25.9,0 
2004/9/3 3:45,20,0,91,0 ,26.5,0 ,64,0 ,26.3,0 ,25.9,0 
2004/9/3 4:00,20,0,92,0 ,26.5,0 ,64,0 ,26.3,0 ,25.9,0 
2004/9/3 4:15,19.9,0,92,0 ,26.5,0 ,64,0 ,26.3,0 ,25.9,0 
2004/9/3 4:30,19.8,0,90,0 ,26.4,0 ,64,0 ,26.2,0 ,25.9,0 
2004/9/3 4:45,19.8,0,90,0 ,26.4,0 ,64,0 ,26.2,0 ,25.9,0 
2004/9/3 5:00,19.7,0,90,0 ,26.5,0 ,64,0 ,26.2,0 ,25.9,0 
2004/9/3 5:15,19.7,0,90,0 ,26.4,0 ,64,0 ,26.2,0 ,26,0 
2004/9/3 5:30,19.5,0,92,0 ,26.5,0 ,64,0 ,26.2,0 ,25.6,0 
2004/9/3 5:45,19.6,0,92,0 ,26.4,0 ,63,0 ,26.2,0 ,25.6,0 
2004/9/3 6:00,19.9,0,93,0 ,26.4,0 ,62,0 ,26.2,0 ,25.6,0 
2004/9/3 6:15,20,0,92,0 ,26.3,0 ,63,0 ,26.2,0 ,24.9,0 
2004/9/3 6:30,20.2,0,91,0 ,26.3,0 ,63,0 ,26.1,0 ,25,0 
2004/9/3 6:45,20.3,0,90,0 ,26.3,0 ,64,0 ,26.1,0 ,25.1,0 
2004/9/3 7:00,20.5,0,88,0 ,26.3,0 ,63,0 ,26.1,0 ,25.1,0 
2004/9/3 7:15,20.5,0,87,0 ,26.3,0 ,63,0 ,26.1,0 ,24.6,0 
2004/9/3 7:30,20.7,0,88,0 ,26.3,0 ,62,0 ,26.1,0 ,24.7,0 
2004/9/3 7:45,21.1,0,86,0 ,26.5,0 ,63,0 ,26.1,0 ,24.7,0 
2004/9/3 8:00,22.3,0,80,0 ,26.6,0 ,62,0 ,26.1,0 ,24.8,0 
2004/9/3 8:15,23,0,76,0 ,26.7,0 ,62,0 ,26.1,0 ,24.8,0 
2004/9/3 8:30,23.7,0,72,0 ,26.8,0 ,62,0 ,26.1,0 ,24.9,0 
2004/9/3 8:45,23.7,0,72,0 ,26.8,0 ,61,0 ,26.2,0 ,24.9,0 
2004/9/3 9:00,24.7,0,69,0 ,26.8,0 ,62,0 ,26.2,0 ,25,0 
2004/9/3 9:15,25.8,0,64,0 ,26.9,0 ,62,0 ,26.2,0 ,25.1,0 
2004/9/3 9:30,26.7,0,61,0 ,26.9,0 ,62,0 ,26.2,0 ,25.1,0 
2004/9/3 9:45,27.3,0,58,0 ,26.9,0 ,62,0 ,26.2,0 ,25.2,0 
2004/9/3 10:00,28,0,52,0 ,26.9,0 ,61,0 ,26.2,0 ,25.2,0 
2004/9/3 10:15,28.5,0,45,0 ,26.9,0 ,60,0 ,26.2,0 ,25.3,0 
2004/9/3 10:30,29,0,42,0 ,26.9,0 ,58,0 ,26.2,0 ,25.3,0 
2004/9/3 10:45,29.7,0,41,0 ,26.9,0 ,57,0 ,26.2,0 ,25.4,0 
2004/9/3 11:00,29.5,0,40,0 ,26.8,0 ,56,0 ,26.2,0 ,25.4,0 
2004/9/3 11:15,29.2,0,39,0 ,26.9,0 ,54,0 ,26.2,0 ,25.4,0 
2004/9/3 11:30,28.3,0,41,0 ,26.8,0 ,55,0 ,26.2,0 ,25.5,0 
2004/9/3 11:45,28,0,42,0 ,26.9,0 ,53,0 ,26.2,0 ,25.5,0 
2004/9/3 12:00,28.3,0,42,0 ,26.9,0 ,53,0 ,26.2,0 ,25.5,0 
2004/9/3 12:15,28.3,0,42,0 ,26.8,0 ,52,0 ,26.2,0 ,25.6,0 
2004/9/3 12:30,28.9,0,40,0 ,26.9,0 ,53,0 ,26.2,0 ,25.6,0 
2004/9/3 12:45,28.6,0,41,0 ,26.9,0 ,51,0 ,26.2,0 ,25.6,0 
2004/9/3 13:00,28.9,0,39,0 ,26.9,0 ,51,0 ,26.2,0 ,25.7,0 
2004/9/3 13:15,28.8,0,39,0 ,26.9,0 ,51,0 ,26.2,0 ,25.7,0 
2004/9/3 13:30,28.8,0,41,0 ,26.9,0 ,50,0 ,26.3,0 ,25.7,0 
2004/9/3 13:45,29,0,42,0 ,27,0 ,51,0 ,26.3,0 ,25.7,0 
2004/9/3 14:00,29,0,42,0 ,27,0 ,52,0 ,26.3,0 ,25.7,0 
2004/9/3 14:15,29.1,0,40,0 ,27,0 ,51,0 ,26.3,0 ,25.8,0 
2004/9/3 14:30,29.2,0,39,0 ,27,0 ,51,0 ,26.4,0 ,25.8,0 
2004/9/3 14:45,29.1,0,38,0 ,27,0 ,49,0 ,26.4,0 ,25.8,0 
2004/9/3 15:00,29.3,0,37,0 ,27,0 ,48,0 ,26.4,0 ,25.9,0 
2004/9/3 15:15,29.4,0,36,0 ,27.1,0 ,48,0 ,26.4,0 ,25.9,0 
2004/9/3 15:30,29.5,0,35,0 ,27.1,0 ,47,0 ,26.5,0 ,25.9,0 
2004/9/3 15:45,29.5,0,36,0 ,27.1,0 ,47,0 ,26.5,0 ,25.9,0 
2004/9/3 16:00,29.5,0,36,0 ,27.1,0 ,47,0 ,26.5,0 ,26,0 
2004/9/3 16:15,29.6,0,37,0 ,27.1,0 ,48,0 ,26.5,0 ,26,0 
2004/9/3 16:30,29.4,0,39,0 ,27.1,0 ,48,0 ,26.5,0 ,26,0 
2004/9/3 16:45,29.2,0,39,0 ,27.1,0 ,49,0 ,26.5,0 ,26,0 
2004/9/3 17:00,29.1,0,40,0 ,27.1,0 ,49,0 ,26.5,0 ,26.1,0 
2004/9/3 17:15,28.8,0,44,0 ,27.1,0 ,51,0 ,26.5,0 ,26.1,0 
2004/9/3 17:30,28.3,0,46,0 ,27.1,0 ,53,0 ,26.5,0 ,26.1,0 
2004/9/3 17:45,27.7,0,53,0 ,27,0 ,54,0 ,26.5,0 ,26.1,0 
2004/9/3 18:00,27.2,0,55,0 ,27,0 ,56,0 ,26.4,0 ,26.1,0 
2004/9/3 18:15,27.4,0,54,0 ,27,0 ,57,0 ,26.4,0 ,26.2,0 
2004/9/3 18:30,27,0,56,0 ,27,0 ,57,0 ,26.5,0 ,26.2,0 
2004/9/3 18:45,26.8,0,58,0 ,27,0 ,58,0 ,26.5,0 ,26.2,0 
2004/9/3 19:00,26.6,0,58,0 ,27,0 ,58,0 ,26.5,0 ,26.2,0 
2004/9/3 19:15,26.5,0,60,0 ,27,0 ,58,0 ,26.5,0 ,26.2,0 
2004/9/3 19:30,26.8,0,59,0 ,27,0 ,59,0 ,26.5,0 ,26.3,0 
2004/9/3 19:45,26.9,0,59,0 ,27,0 ,59,0 ,26.5,0 ,26.3,0 
2004/9/3 20:00,26.7,0,59,0 ,27,0 ,59,0 ,26.5,0 ,26.3,0 
2004/9/3 20:15,26.7,0,58,0 ,27,0 ,59,0 ,26.4,0 ,26.3,0 
2004/9/3 20:30,26,0,63,0 ,26.9,0 ,59,0 ,26.4,0 ,26.3,0 
2004/9/3 20:45,25.7,0,64,0 ,26.9,0 ,60,0 ,26.4,0 ,26.4,0 
2004/9/3 21:00,25.1,0,67,0 ,26.9,0 ,60,0 ,26.4,0 ,26.4,0 
2004/9/3 21:15,25,0,67,0 ,26.9,0 ,60,0 ,26.4,0 ,26.4,0 
2004/9/3 21:30,25.6,0,64,0 ,26.9,0 ,61,0 ,26.5,0 ,25.9,0 
2004/9/3 21:45,25.2,0,65,0 ,27,0 ,62,0 ,26.5,0 ,26,0 
2004/9/3 22:00,24.5,0,69,0 ,27,0 ,62,0 ,26.5,0 ,26,0 
2004/9/3 22:15,24.7,0,70,0 ,27,0 ,62,0 ,26.5,0 ,26.1,0 
2004/9/3 22:30,24.7,0,70,0 ,27,0 ,62,0 ,26.5,0 ,26.1,0 
2004/9/3 22:45,24.9,0,67,0 ,27,0 ,62,0 ,26.5,0 ,26.2,0 
2004/9/3 23:00,24.8,0,66,0 ,27.1,0 ,62,0 ,26.5,0 ,26.2,0 
2004/9/3 23:15,24.8,0,64,0 ,27,0 ,61,0 ,26.5,0 ,26.2,0 
2004/9/3 23:30,24,0,70,0 ,27.1,0 ,61,0 ,26.5,0 ,26.2,0 
2004/9/3 23:45,23.4,0,72,0 ,27.1,0 ,61,0 ,26.5,0 ,26.3,0 
2004/9/4 0:00,23.4,0,73,0 ,27.1,0 ,61,0 ,26.5,0 ,26.3,0 
2004/9/4 0:15,23.6,0,72,0 ,27.1,0 ,60,0 ,26.5,0 ,26.3,0 
2004/9/4 0:30,23.9,0,71,0 ,27.1,0 ,60,0 ,26.5,0 ,26.3,0 
2004/9/4 0:45,23.8,0,71,0 ,27.1,0 ,60,0 ,26.5,0 ,26.3,0 
2004/9/4 1:00,23.7,0,71,0 ,27.2,0 ,60,0 ,26.5,0 ,26.4,0 
2004/9/4 1:15,23,0,76,0 ,27.2,0 ,60,0 ,26.5,0 ,26.4,0 
2004/9/4 1:30,23.1,0,76,0 ,27.2,0 ,60,0 ,26.5,0 ,26.4,0 
2004/9/4 1:45,23.1,0,75,0 ,27.2,0 ,60,0 ,26.5,0 ,26.4,0 
2004/9/4 2:00,23.1,0,76,0 ,27.2,0 ,60,0 ,26.5,0 ,26.4,0 
2004/9/4 2:15,23.2,0,75,0 ,27.2,0 ,61,0 ,26.5,0 ,26.4,0 
2004/9/4 2:30,22.9,0,76,0 ,27.2,0 ,61,0 ,26.5,0 ,26.2,0 
2004/9/4 2:45,22.3,0,79,0 ,27.1,0 ,60,0 ,26.5,0 ,26.3,0 
2004/9/4 3:00,22.2,0,78,0 ,27.1,0 ,60,0 ,26.5,0 ,26.3,0 
2004/9/4 3:15,21.7,0,80,0 ,27.2,0 ,61,0 ,26.5,0 ,26.4,0 
2004/9/4 3:30,21.7,0,82,0 ,27.2,0 ,61,0 ,26.5,0 ,26.4,0 
2004/9/4 3:45,22.3,0,80,0 ,27.2,0 ,61,0 ,26.5,0 ,26.4,0 
2004/9/4 4:00,22.4,0,79,0 ,27.2,0 ,61,0 ,26.5,0 ,26.4,0 
2004/9/4 4:15,22.4,0,79,0 ,27.2,0 ,61,0 ,26.5,0 ,26.4,0 
2004/9/4 4:30,22.1,0,78,0 ,27.3,0 ,61,0 ,26.4,0 ,26.5,0 
2004/9/4 4:45,22,0,80,0 ,27.3,0 ,61,0 ,26.4,0 ,26.5,0 
2004/9/4 5:00,21.7,0,82,0 ,27.3,0 ,61,0 ,26.4,0 ,26.5,0 
2004/9/4 5:15,21.9,0,82,0 ,27.2,0 ,60,0 ,26.4,0 ,26.5,0 
2004/9/4 5:30,21.5,0,82,0 ,27.2,0 ,60,0 ,26.4,0 ,26.5,0 
2004/9/4 5:45,21.3,0,85,0 ,27.2,0 ,59,0 ,26.4,0 ,26.6,0 
2004/9/4 6:00,21.9,0,82,0 ,27.1,0 ,59,0 ,26.4,0 ,26.6,0 
2004/9/4 6:15,21.8,0,82,0 ,27.1,0 ,59,0 ,26.4,0 ,26.6,0 
2004/9/4 6:30,22.6,0,80,0 ,27.1,0 ,59,0 ,26.4,0 ,26.3,0 
2004/9/4 6:45,23.2,0,76,0 ,27.2,0 ,59,0 ,26.4,0 ,26.2,0 
2004/9/4 7:00,23.6,0,73,0 ,27.2,0 ,60,0 ,26.4,0 ,26.2,0 
2004/9/4 7:15,23.9,0,72,0 ,27.2,0 ,60,0 ,26.4,0 ,26.3,0 
2004/9/4 7:30,24.1,0,70,0 ,27.3,0 ,60,0 ,26.5,0 ,26.3,0 
2004/9/4 7:45,23.3,0,72,0 ,27.3,0 ,60,0 ,26.5,0 ,25.7,0 
2004/9/4 8:00,23.7,0,71,0 ,27.3,0 ,60,0 ,26.4,0 ,25.8,0 
2004/9/4 8:15,23.8,0,71,0 ,27.3,0 ,60,0 ,26.4,0 ,25.8,0 
2004/9/4 8:30,24.7,0,66,0 ,27.4,0 ,60,0 ,26.5,0 ,25.6,0 
2004/9/4 8:45,24.9,0,64,0 ,27.3,0 ,60,0 ,26.5,0 ,25.4,0 
2004/9/4 9:00,25.5,0,61,0 ,27.3,0 ,59,0 ,26.5,0 ,25.5,0 
2004/9/4 9:15,25.9,0,61,0 ,27.3,0 ,59,0 ,26.5,0 ,25.5,0 
2004/9/4 9:30,25.7,0,61,0 ,27.4,0 ,59,0 ,26.5,0 ,25.6,0 
2004/9/4 9:45,25.8,0,60,0 ,27.3,0 ,59,0 ,26.6,0 ,25.6,0 
2004/9/4 10:00,25.8,0,60,0 ,27.4,0 ,58,0 ,26.6,0 ,25.7,0 
2004/9/4 10:15,27,0,55,0 ,27.4,0 ,58,0 ,26.6,0 ,25.7,0 
2004/9/4 10:30,27.4,0,55,0 ,27.4,0 ,58,0 ,26.6,0 ,25.8,0 
2004/9/4 10:45,28,0,53,0 ,27.3,0 ,58,0 ,26.6,0 ,25.8,0 
2004/9/4 11:00,27.7,0,53,0 ,27.3,0 ,58,0 ,26.7,0 ,25.8,0 
2004/9/4 11:15,27.1,0,55,0 ,27.3,0 ,58,0 ,26.7,0 ,25.9,0 
2004/9/4 11:30,27.2,0,56,0 ,27.3,0 ,58,0 ,26.7,0 ,25.9,0 
2004/9/4 11:45,27.1,0,58,0 ,27.3,0 ,59,0 ,26.7,0 ,25.9,0 
2004/9/4 12:00,27.8,0,56,0 ,27.4,0 ,59,0 ,26.7,0 ,26,0 
2004/9/4 12:15,28.1,0,56,0 ,27.4,0 ,60,0 ,26.7,0 ,25.6,0 
2004/9/4 12:30,28.1,0,55,0 ,27.4,0 ,60,0 ,26.8,0 ,25.6,0 
2004/9/4 12:45,29.2,0,54,0 ,27.4,0 ,61,0 ,26.9,0 ,25.7,0 
2004/9/4 13:00,28.9,0,55,0 ,27.5,0 ,61,0 ,26.8,0 ,25.7,0 
2004/9/4 13:15,28.5,0,56,0 ,27.6,0 ,61,0 ,26.8,0 ,25.6,0 
2004/9/4 13:30,28.6,0,56,0 ,27.6,0 ,62,0 ,26.8,0 ,25.7,0 
2004/9/4 13:45,28.3,0,57,0 ,27.5,0 ,62,0 ,26.8,0 ,25.5,0 
2004/9/4 14:00,28.2,0,58,0 ,27.5,0 ,63,0 ,26.8,0 ,25.6,0 
2004/9/4 14:15,27.8,0,61,0 ,27.5,0 ,64,0 ,26.8,0 ,25.7,0 
2004/9/4 14:30,27.8,0,61,0 ,27.4,0 ,64,0 ,26.8,0 ,25.7,0 
2004/9/4 14:45,26.3,0,74,0 ,27.4,0 ,68,0 ,26.8,0 ,25.8,0 
2004/9/4 15:00,26.5,0,75,0 ,27.4,0 ,70,0 ,26.8,0 ,25.9,0 
2004/9/4 15:15,26.6,0,76,0 ,27.3,0 ,72,0 ,26.8,0 ,25.9,0 
2004/9/4 15:30,26.2,0,75,0 ,27.3,0 ,71,0 ,26.8,0 ,26,0 
2004/9/4 15:45,25.2,0,86,0 ,27.2,0 ,73,0 ,26.8,0 ,26,0 
2004/9/4 16:00,24.9,0,88,0 ,27.2,0 ,73,0 ,26.9,0 ,26.1,0 
2004/9/4 16:15,24.7,0,89,0 ,27.2,0 ,73,0 ,26.9,0 ,26.1,0 
2004/9/4 16:30,25.1,0,93,0 ,27.2,0 ,73,0 ,26.9,0 ,26.2,0 
2004/9/4 16:45,24.8,0,91,0 ,27.1,0 ,74,0 ,26.9,0 ,26.2,0 
2004/9/4 17:00,23.9,0,90,0 ,27,0 ,75,0 ,26.9,0 ,26.2,0 
2004/9/4 17:15,24,0,94,0 ,27,0 ,74,0 ,26.9,0 ,26.2,0 
2004/9/4 17:30,23.9,0,92,0 ,26.9,0 ,74,0 ,26.9,0 ,26.3,0 
2004/9/4 17:45,23.9,0,91,0 ,26.9,0 ,74,0 ,26.8,0 ,26.3,0 
2004/9/4 18:00,24.3,0,95,0 ,26.9,0 ,73,0 ,26.8,0 ,26.3,0 
2004/9/4 18:15,24.6,0,95,0 ,27,0 ,74,0 ,26.8,0 ,26.3,0 
2004/9/4 18:30,24.5,0,95,0 ,26.9,0 ,75,0 ,26.8,0 ,26.4,0 
2004/9/4 18:45,24.3,0,93,0 ,27,0 ,74,0 ,26.8,0 ,26.4,0 
2004/9/4 19:00,23.2,0,89,0 ,27,0 ,74,0 ,26.8,0 ,26,0 
2004/9/4 19:15,23.1,0,94,0 ,27.1,0 ,74,0 ,26.8,0 ,26,0 
2004/9/4 19:30,23.1,0,94,0 ,27.2,0 ,73,0 ,26.8,0 ,26.1,0 
2004/9/4 19:45,23.2,0,93,0 ,27.2,0 ,73,0 ,26.8,0 ,26.1,0 
2004/9/4 20:00,22.9,0,91,0 ,27.3,0 ,74,0 ,26.9,0 ,26.2,0 
2004/9/4 20:15,22.7,0,90,0 ,27.3,0 ,71,0 ,26.9,0 ,26.2,0 
2004/9/4 20:30,22.7,0,90,0 ,27.2,0 ,71,0 ,26.8,0 ,26.2,0 
2004/9/4 20:45,22.7,0,90,0 ,27.3,0 ,71,0 ,26.8,0 ,26.3,0 
2004/9/4 21:00,22.4,0,90,0 ,27.3,0 ,70,0 ,26.8,0 ,26.3,0 
2004/9/4 21:15,22.6,0,90,0 ,27.3,0 ,70,0 ,26.8,0 ,26.3,0 
2004/9/4 21:30,22.4,0,90,0 ,27.3,0 ,69,0 ,26.8,0 ,26.4,0 
2004/9/4 21:45,22.4,0,90,0 ,27.3,0 ,69,0 ,26.8,0 ,26.4,0 
2004/9/4 22:00,22.2,0,91,0 ,27.3,0 ,69,0 ,26.8,0 ,26.4,0 
2004/9/4 22:15,22.4,0,92,0 ,27.3,0 ,68,0 ,26.8,0 ,26.4,0 
2004/9/4 22:30,22.4,0,90,0 ,27.3,0 ,68,0 ,26.8,0 ,26.4,0 
2004/9/4 22:45,22.5,0,92,0 ,27.3,0 ,68,0 ,26.8,0 ,26.5,0 
2004/9/4 23:00,22.9,0,92,0 ,27.4,0 ,68,0 ,26.8,0 ,26.5,0 
2004/9/4 23:15,22.9,0,92,0 ,27.4,0 ,68,0 ,26.8,0 ,25.5,0 
2004/9/4 23:30,22.6,0,90,0 ,27.3,0 ,68,0 ,26.9,0 ,25.6,0 
2004/9/4 23:45,22.2,0,90,0 ,27.4,0 ,69,0 ,26.9,0 ,25.4,0 
2004/9/5 0:00,22.2,0,90,0 ,27.5,0 ,74,0 ,27.2,0 ,25.5,0 
2004/9/5 0:15,22.1,0,91,0 ,27.5,0 ,76,0 ,27.3,0 ,25.3,0 
2004/9/5 0:30,22,0,90,0 ,27.5,0 ,74,0 ,27.3,0 ,25.4,0 
2004/9/5 0:45,22.1,0,90,0 ,27.5,0 ,73,0 ,27.2,0 ,25.5,0 
2004/9/5 1:00,22.2,0,88,0 ,27.5,0 ,72,0 ,27.2,0 ,25.6,0 
2004/9/5 1:15,22,0,88,0 ,27.5,0 ,72,0 ,27.2,0 ,25.7,0 
2004/9/5 1:30,21.9,0,87,0 ,27.5,0 ,71,0 ,27.1,0 ,25.7,0 
2004/9/5 1:45,21.7,0,88,0 ,27.4,0 ,69,0 ,27.1,0 ,25.8,0 
2004/9/5 2:00,21.8,0,88,0 ,27.4,0 ,69,0 ,27,0 ,25.8,0 
2004/9/5 2:15,21.7,0,87,0 ,27.3,0 ,68,0 ,27,0 ,25.9,0 
2004/9/5 2:30,21.4,0,88,0 ,27.3,0 ,68,0 ,27,0 ,25.9,0 
2004/9/5 2:45,21.1,0,90,0 ,27.3,0 ,68,0 ,27,0 ,26,0 
2004/9/5 3:00,21.2,0,90,0 ,27.3,0 ,67,0 ,26.9,0 ,26,0 
2004/9/5 3:15,21,0,90,0 ,27.2,0 ,67,0 ,26.9,0 ,26.1,0 
2004/9/5 3:30,21.2,0,90,0 ,27.2,0 ,67,0 ,26.8,0 ,26.1,0 
2004/9/5 3:45,21.2,0,89,0 ,27.2,0 ,67,0 ,26.8,0 ,26.1,0 
2004/9/5 4:00,21.3,0,89,0 ,27.1,0 ,67,0 ,26.8,0 ,26.1,0 
2004/9/5 4:15,21.4,0,89,0 ,27.1,0 ,67,0 ,26.8,0 ,26.2,0 
2004/9/5 4:30,21.6,0,89,0 ,27.1,0 ,67,0 ,26.8,0 ,26.2,0 
2004/9/5 4:45,21.6,0,90,0 ,27,0 ,68,0 ,26.8,0 ,26.2,0 
2004/9/5 5:00,21.5,0,91,0 ,27,0 ,67,0 ,26.7,0 ,26.2,0 
2004/9/5 5:15,21.5,0,92,0 ,27,0 ,67,0 ,26.7,0 ,26.2,0 
2004/9/5 5:30,21.4,0,92,0 ,27,0 ,68,0 ,26.7,0 ,26.2,0 
2004/9/5 5:45,21.3,0,93,0 ,27,0 ,68,0 ,26.7,0 ,26.2,0 
2004/9/5 6:00,21.1,0,93,0 ,27,0 ,67,0 ,26.7,0 ,26.3,0 
2004/9/5 6:15,21.3,0,94,0 ,26.9,0 ,68,0 ,26.7,0 ,26.3,0 
2004/9/5 6:30,21.3,0,94,0 ,26.9,0 ,68,0 ,26.7,0 ,26.3,0 
2004/9/5 6:45,21.3,0,94,0 ,26.9,0 ,67,0 ,26.7,0 ,26.3,0 